TimeCDT,TemperatureF,Dew PointF,Humidity,Sea Level PressureIn,VisibilityMPH,Wind Direction,Wind SpeedMPH,Gust SpeedMPH,PrecipitationIn,Events,Conditions,WindDirDegrees,DateUTC
12:55 AM,62.6,62.6,100,30.21,0.2,Calm,Calm,-,N/A,Fog,Fog,0,2012-10-13 05:55:00
1:55 AM,62.6,62.6,100,30.20,0.2,Calm,Calm,-,N/A,Fog,Fog,0,2012-10-13 06:55:00
2:15 AM,62.6,62.6,100,30.20,0.2,Calm,Calm,-,N/A,,Overcast,0,2012-10-13 07:15:00
2:35 AM,64.4,64.4,100,30.19,0.2,ENE,3.5,-,N/A,,Overcast,70,2012-10-13 07:35:00
2:55 AM,64.4,64.4,100,30.19,0.2,Calm,Calm,-,N/A,,Overcast,0,2012-10-13 07:55:00
3:15 AM,64.4,64.4,100,30.18,0.2,Calm,Calm,-,N/A,,Overcast,0,2012-10-13 08:15:00
3:35 AM,64.4,64.4,100,30.18,0.2,Variable,3.5,-,N/A,,Overcast,0,2012-10-13 08:35:00
3:55 AM,64.4,64.4,100,30.18,0.2,Calm,Calm,-,N/A,,Overcast,0,2012-10-13 08:55:00
4:55 AM,64.4,64.4,100,30.17,0.2,Calm,Calm,-,N/A,,Overcast,0,2012-10-13 09:55:00
5:55 AM,64.4,64.4,100,30.17,0.2,Calm,Calm,-,N/A,Fog,Fog,0,2012-10-13 10:55:00
6:55 AM,64.4,64.4,100,30.18,0.2,Calm,Calm,-,N/A,Fog,Fog,0,2012-10-13 11:55:00
7:55 AM,64.4,64.4,100,30.19,1.0,Calm,Calm,-,N/A,,Scattered Clouds,0,2012-10-13 12:55:00
8:55 AM,68.0,68.0,100,30.19,5.0,SE,6.9,-,N/A,,Scattered Clouds,140,2012-10-13 13:55:00
9:55 AM,73.4,68.0,83,30.18,10.0,South,8.1,-,N/A,,Partly Cloudy,170,2012-10-13 14:55:00
10:55 AM,77.0,66.2,69,30.17,10.0,South,10.4,-,N/A,,Scattered Clouds,180,2012-10-13 15:55:00
11:55 AM,78.8,66.2,65,30.14,10.0,South,8.1,-,N/A,,Scattered Clouds,180,2012-10-13 16:55:00
12:55 PM,78.8,64.4,61,30.11,10.0,SSW,9.2,-,N/A,,Mostly Cloudy,200,2012-10-13 17:55:00
1:55 PM,82.4,64.4,54,30.09,10.0,South,9.2,-,N/A,,Mostly Cloudy,190,2012-10-13 18:55:00
2:55 PM,82.4,62.6,51,30.06,10.0,South,11.5,-,N/A,,Scattered Clouds,180,2012-10-13 19:55:00
3:55 PM,82.4,62.6,51,30.04,10.0,SSE,9.2,-,N/A,,Scattered Clouds,160,2012-10-13 20:55:00
4:55 PM,80.6,62.6,54,30.04,10.0,SSE,6.9,-,N/A,,Scattered Clouds,160,2012-10-13 21:55:00
5:55 PM,78.8,62.6,57,30.03,10.0,SSE,6.9,-,N/A,,Mostly Cloudy,150,2012-10-13 22:55:00
6:55 PM,75.2,64.4,69,30.01,10.0,SE,5.8,-,N/A,,Mostly Cloudy,140,2012-10-13 23:55:00
7:55 PM,73.4,62.6,69,30.03,10.0,SE,4.6,-,N/A,,Clear,130,2012-10-14 00:55:00
9:55 PM,73.4,62.6,69,30.01,10.0,SSE,10.4,-,N/A,,Clear,150,2012-10-14 02:55:00